User: anonymous   Login
Location: Cherry Springs State Park
(41.6616°N, 77.8240°W)
Time: 07:29:48
(UTC-04:00)
Language:

Cosmos 1437 - Orbit

View from above orbital plane
View from above orbital plane
View from above satellite
View from above satellite

Ground track
Ground track

The orbit data is extracted from the following two-line orbital elements,

1 13770U 83003A   16150.16784708  .00007995  00000-0  15970-3 0  9991
2 13770  81.1600 258.3527 0008221 165.0339 195.1151 15.46613755827078
Epoch (UTC): 29 May 2016 04:01:41
Eccentricity: 0.0008221
inclination: 81.1600°
perigee height: 421 km
apogee height: 432 km
right ascension of ascending node: 258.3527°
argument of perigee: 165.0339°
revolutions per day: 15.46613755
mean anomaly at epoch: 195.1151°
orbit number at epoch: 82707

The dashed part of the orbit path shows where the satellite is in the earth's shadow,  

DLR